Vertical_Velocity
-4 2 1 1 -1 -3 -3 -5 -3 -6 -2 -1 -1 -1 -1 3 0 -1 4 2 -4 0 1 0 1 6 -1 2 10 2 3 3 -0 1 1 -3 -3 -1 0 4 3 -12 -0
1 -0 1 1 2 -0 -2 1 0 0 -1 -3 -3 -1 -1 -1 -0 -2 1 3 -3 1 3 2 -0 4 -2 1 9 2 5 5 6 3 2 0 2 -5 -3 -6 6 -4 1
-1 -1 -1 -1 -2 0 4 2 1 3 2 0 -3 -4 -4 -2 -2 -4 -4 -3 -7 -6 -1 -0 -2 0 2 1 4 3 5 3 1 0 -3 10 5 6 14 1 -1 -0 -1
1 -2 -2 -2 3 5 3 -0 0 3 -0 2 4 0 2 0 -1 -0 -0 1 1 -3 -2 -2 -3 -1 -2 1 3 3 6 -2 -2 -4 -0 -9 2 1 -2 0 0 4 7
6 -0 -1 9 3 3 2 3 7 -2 -1 2 -1 3 -0 -2 -3 -0 1 2 0 -1 -0 -1 3 4 -7 -5 6 3 3 1 -0 2 4 5 -2 -1 -3 7 3 5 14
6 -0 12 1 4 1 2 3 1 5 4 0 -3 -1 2 -2 3 5 4 2 6 2 -3 4 1 2 3 4 10 9 12 -2 5 11 -0 6 -3 1 -1 -4 1 9 -7
-1 2 2 5 -1 -1 6 -1 -2 -4 6 1 -1 1 2 1 4 4 7 2 2 -2 2 4 3 3 5 8 -8 -1 -0 -2 1 32 16 -1 21 -6 16 -7 4 9 27
-1 4 3 2 1 8 6 1 3 2 -2 -1 3 1 -2 -0 -0 1 5 4 -3 -3 1 -1 -4 -1 2 0 -1 1 7 36 -8 5 0 -0 -1 22 0 14 21 9 8
5 6 9 2 8 11 1 4 9 -1 3 2 3 -0 -3 -0 -3 1 4 6 2 -1 -0 -0 1 3 2 4 3 6 13 -7 19 -14 13 11 5 5 -0 3 6 -4 13
2 -2 -12 2 4 -11 -6 10 7 3 4 3 6 3 -2 1 2 5 3 4 -1 -2 1 1 2 4 4 -0 1 12 16 6 9 -2 3 -1 7 12 5 18 -6 3 -10
4 4 5 -5 -8 4 4 3 6 10 4 10 10 9 9 9 4 4 7 4 4 2 0 -9 -7 -1 3 5 3 5 11 8 3 3 4 12 12 10 0 2 2 6 -1
-2 0 7 7 -4 3 2 2 0 -34 6 -7 -14 -9 10 8 7 9 10 8 1 7 -1 5 2 3 4 1 -2 -1 5 9 7 7 9 8 3 7 4 1 -0 -6 -1
-2 -4 5 2 4 3 2 -4 8 12 2 10 -3 13 2 4 7 12 10 8 10 -1 19 -2 -0 -2 3 13 10 2 11 12 5 9 3 4 2 -0 -1 -1 -4 -4 1
-1 -1 0 4 7 4 4 7 -2 -0 6 -2 3 1 9 -5 -5 -8 0 16 8 6 1 33 17 6 10 9 5 20 1 11 8 -1 3 2 -3 -2 -2 -2 -3 -3 -3
-4 -4 1 1 4 -3 8 3 -1 7 -0 9 3 -13 27 -13 5 16 6 23 5 26 9 6 8 14 12 -1 -1 11 7 3 4 2 2 1 -1 -3 -4 -2 -1 1 -2
-2 -1 1 7 7 8 3 1 3 5 6 -11 24 5 20 25 -4 12 2 17 5 -2 8 3 4 6 19 2 1 -0 -2 -2 -3 -2 -4 -2 -4 -5 -1 -1 -3 -3 -1
0 -8 -25 -5 -5 1 10 43 14 -2 5 11 18 31 -9 34 6 10 18 3 -0 -2 14 6 1 -1 1 0 -1 -0 1 -4 -6 -5 -7 -4 -1 -3 -1 -0 1 -3 -3
-2 2 -9 -4 -6 -41 9 19 -11 10 25 -1 6 2 0 6 4 -4 22 -2 -1 -1 1 7 4 -0 -5 -4 -6 -7 -3 -2 -1 -1 -3 -2 -2 -1 -2 -4 -3 -4 -2
-1 -6 -5 -3 13 4 1 7 6 -6 8 -2 3 1 2 7 11 -2 -0 5 6 5 5 -1 -1 3 -1 -3 -2 -0 -2 -1 1 -1 -1 0 -1 -0 -3 -3 -3 0 -4
-3 -3 1 1 -2 7 9 1 13 5 8 -2 8 15 7 2 1 -3 -2 -3 -1 3 1 -1 -1 0 -2 -1 -3 -2 -2 -2 -2 -2 -0 -2 -2 -2 -0 -2 -5 -5 -4
-1 -0 3 -0 6 2 3 5 3 2 -11 -5 -1 -5 0 -9 -3 1 0 0 -1 -3 0 2 -1 -1 -2 -0 0 -1 -3 -3 0 -1 0 -3 0 -1 -5 -3 -1 -8 -1
1 -1 -1 -2 0 2 2 3 4 -5 -3 4 -1 -1 4 -1 -2 -2 2 2 1 -3 -4 -3 -4 3 0 -0 -1 -1 -5 -2 -2 -1 -2 -1 -1 -3 -5 -3 -2 -1 -2
2 2 2 2 2 0 -2 -1 1 3 -1 -1 -0 2 -3 -7 -3 0 1 1 -0 2 -3 -0 -3 3 -1 -2 -4 -4 -4 2 -1 -2 -4 -3 -3 -0 -5 -3 -2 -2 -5
-0 -1 -0 -2 1 3 2 7 6 -2 -1 -3 -4 0 1 -4 1 2 -6 -3 0 1 1 3 0 -1 -5 -2 -1 1 -1 -3 -2 -4 -2 -1 -3 -4 1 -2 -4 -3 -3
-2 1 2 0 -0 -1 2 -2 -3 -1 1 4 4 -2 -3 -5 -2 2 5 0 1 -1 -3 -4 -5 -3 -1 0 -1 -2 -1 -4 0 1 -2 -6 -2 -1 -2 -4 -3 -2 -1
-2 -3 1 -2 -1 -1 1 0 -2 -3 -1 -1 -2 -1 1 2 -0 -1 -3 -6 -3 -2 1 -1 -0 -1 -4 -3 -1 -0 -0 -1 -4 -2 0 -0 -4 -3 -0 -2 -3 -3 -1
Height
3043 3046 3047 3048 3050 3051 3051 3052 3053 3055 3057 3059 3060 3062 3064 3067 3069 3071 3074 3078 3080 3083 3086 3088 3090 3093 3093 3096 3096 3098 3098 3097 3093 3094 3095 3093 3092 3093 3092 3091 3090 3089 3089
3039 3042 3044 3045 3046 3047 3049 3049 3051 3052 3054 3055 3056 3058 3060 3061 3063 3064 3066 3069 3070 3074 3076 3078 3080 3084 3086 3087 3087 3089 3088 3089 3086 3082 3079 3080 3078 3078 3079 3080 3078 3076 3078
3034 3037 3039 3040 3042 3044 3045 3046 3047 3048 3049 3050 3051 3053 3055 3056 3057 3059 3060 3062 3063 3065 3068 3070 3073 3076 3076 3077 3078 3078 3079 3078 3075 3071 3067 3066 3064 3062 3064 3066 3067 3066 3066
3028 3031 3033 3035 3037 3039 3040 3041 3042 3043 3044 3045 3046 3046 3048 3050 3051 3052 3053 3055 3057 3059 3061 3062 3064 3066 3067 3067 3067 3067 3067 3065 3064 3060 3055 3050 3049 3047 3049 3052 3054 3055 3054
3023 3025 3028 3030 3032 3033 3035 3035 3036 3036 3037 3038 3038 3039 3041 3042 3044 3045 3047 3048 3050 3051 3052 3054 3055 3057 3056 3054 3055 3054 3055 3053 3051 3048 3045 3042 3042 3042 3044 3043 3043 3044 3042
3016 3019 3021 3022 3024 3025 3027 3028 3029 3029 3029 3029 3030 3031 3032 3033 3035 3037 3038 3039 3040 3041 3042 3044 3045 3045 3046 3043 3044 3044 3043 3041 3038 3037 3036 3032 3034 3032 3033 3032 3032 3029 3029
3010 3012 3012 3013 3014 3017 3018 3019 3021 3021 3021 3022 3022 3022 3023 3024 3027 3028 3030 3029 3031 3031 3032 3034 3034 3035 3036 3034 3031 3032 3031 3029 3026 3020 3023 3019 3018 3019 3018 3017 3015 3013 3014
3003 3004 3005 3005 3006 3007 3008 3010 3012 3013 3013 3014 3014 3014 3015 3016 3017 3018 3019 3019 3019 3020 3020 3021 3022 3024 3024 3024 3023 3022 3018 3010 3014 3011 3011 3010 3005 3008 3007 3005 3005 3006 3006
2996 2995 2996 2998 2998 2997 2997 3000 3003 3002 3004 3004 3005 3006 3006 3007 3008 3008 3009 3009 3008 3008 3008 3008 3009 3011 3012 3013 3012 3010 3008 3005 3001 3003 2998 2997 2995 2994 2995 2994 2995 2994 2995
2984 2984 2983 2983 2987 2988 2989 2990 2990 2991 2993 2995 2995 2996 2997 2997 2998 2999 2999 2998 2997 2997 2997 2996 2997 2997 2998 2999 2999 2997 2995 2993 2990 2990 2987 2984 2981 2979 2980 2981 2984 2982 2983
2975 2975 2976 2975 2975 2976 2976 2977 2979 2978 2979 2984 2986 2986 2987 2987 2988 2988 2988 2987 2986 2986 2984 2984 2985 2986 2987 2987 2985 2984 2983 2981 2979 2977 2974 2971 2969 2970 2971 2972 2971 2970 2966
2962 2964 2965 2965 2964 2965 2965 2964 2966 2970 2972 2973 2975 2973 2974 2975 2975 2976 2977 2976 2974 2973 2973 2973 2972 2973 2974 2973 2972 2971 2970 2968 2966 2964 2961 2960 2961 2961 2961 2960 2959 2957 2955
2952 2951 2952 2953 2953 2954 2954 2955 2956 2958 2958 2958 2959 2960 2961 2961 2961 2962 2963 2962 2960 2960 2955 2956 2958 2957 2957 2957 2957 2957 2954 2952 2950 2951 2952 2952 2951 2950 2949 2947 2946 2943 2941
2941 2940 2940 2939 2940 2942 2944 2944 2945 2945 2944 2946 2946 2946 2945 2946 2946 2947 2947 2946 2940 2939 2941 2941 2941 2940 2941 2942 2942 2941 2941 2941 2942 2943 2941 2939 2938 2937 2936 2933 2931 2929 2927
2934 2931 2930 2929 2929 2931 2931 2934 2933 2933 2934 2935 2934 2934 2927 2929 2930 2930 2929 2924 2925 2925 2928 2928 2928 2925 2924 2926 2929 2932 2931 2933 2933 2931 2930 2929 2928 2926 2925 2923 2921 2918 2915
2928 2924 2922 2920 2918 2918 2919 2919 2920 2919 2919 2921 2917 2917 2910 2907 2915 2914 2912 2912 2915 2914 2913 2914 2915 2918 2917 2919 2922 2925 2925 2925 2924 2923 2922 2919 2918 2916 2914 2912 2909 2906 2901
2921 2919 2916 2914 2911 2905 2905 2899 2903 2904 2904 2904 2903 2904 2904 2900 2903 2906 2905 2904 2907 2911 2912 2911 2912 2915 2915 2916 2916 2917 2917 2915 2914 2913 2911 2910 2908 2905 2902 2898 2894 2890 2886
2913 2911 2910 2910 2906 2905 2899 2898 2895 2890 2889 2897 2896 2894 2893 2896 2898 2902 2901 2901 2905 2908 2909 2908 2908 2909 2910 2911 2910 2909 2907 2906 2904 2902 2900 2898 2895 2891 2886 2883 2879 2875 2870
2907 2907 2906 2905 2901 2899 2894 2896 2892 2894 2891 2894 2895 2896 2897 2897 2897 2899 2901 2902 2903 2903 2902 2902 2902 2901 2900 2900 2900 2899 2897 2896 2894 2891 2888 2884 2880 2877 2872 2868 2865 2861 2857
2903 2902 2902 2901 2900 2897 2896 2895 2893 2891 2892 2893 2897 2896 2894 2895 2897 2898 2900 2899 2899 2897 2896 2895 2895 2894 2893 2892 2890 2889 2887 2885 2882 2878 2875 2872 2868 2864 2860 2857 2854 2850 2847
2901 2900 2899 2898 2897 2896 2895 2894 2893 2889 2891 2895 2895 2894 2893 2894 2896 2896 2895 2893 2892 2892 2890 2888 2888 2887 2884 2883 2880 2878 2876 2875 2872 2868 2865 2861 2859 2855 2852 2850 2844 2842 2840
2901 2900 2899 2898 2896 2895 2893 2892 2890 2889 2892 2891 2889 2891 2889 2889 2891 2891 2889 2887 2885 2884 2882 2880 2879 2877 2874 2872 2871 2869 2867 2865 2863 2860 2856 2854 2851 2847 2844 2843 2840 2835 2833
2900 2898 2897 2895 2894 2893 2892 2890 2889 2888 2888 2887 2887 2886 2885 2885 2886 2884 2881 2880 2879 2877 2874 2873 2871 2869 2866 2864 2863 2861 2860 2857 2854 2852 2849 2847 2844 2842 2838 2837 2834 2830 2827
2899 2898 2896 2894 2893 2891 2890 2888 2886 2886 2885 2884 2882 2880 2879 2879 2879 2877 2875 2873 2871 2869 2867 2865 2863 2861 2860 2857 2855 2854 2852 2850 2848 2845 2842 2841 2839 2836 2833 2831 2829 2825 2822
2896 2895 2893 2891 2889 2887 2885 2883 2882 2881 2880 2878 2875 2874 2874 2873 2872 2871 2868 2867 2865 2864 2861 2859 2856 2854 2853 2851 2849 2847 2845 2844 2842 2840 2837 2835 2833 2831 2829 2826 2824 2822 2819
2892 2890 2888 2886 2885 2883 2881 2880 2878 2876 2875 2872 2871 2870 2870 2869 2867 2865 2863 2860 2859 2857 2854 2851 2849 2847 2846 2845 2843 2841 2839 2838 2836 2834 2831 2829 2828 2826 2824 2822 2819 2818 2815